EW5980 Weather Reports


time (UTC)temp
C
wind
direction
speed
KPH
gust
KPH
rain 1hr
cm
rain 24hr
cm
rain mn
cm
humidity
%
barometer
mb
20260504201540 26 0.0 0.0 0.00 0.00 0.00 41 1014.3
20260504200046 26 0.0 0.0 0.00 0.00 0.00 42 1014.6
20260504194551 26 0.0 0.0 0.00 0.00 0.00 41 1015.1
20260504193043 26 0.0 0.0 0.00 0.00 0.00 42 1015.2
20260504191543 26 0.0 0.0 0.00 0.00 0.00 43 1015.4
20260504190042 26 0.0 0.0 0.00 0.00 0.00 42 1015.5
20260504184537 27 0.0 0.0 0.00 0.00 0.00 43 1015.6
20260504183045 26 0.0 0.0 0.00 0.00 0.00 43 1015.7
20260504181541 26 0.0 0.0 0.00 0.00 0.00 44 1015.8
20260504180048 26 0.0 0.0 0.00 0.00 0.00 42 1016.1
20260504174544 26 0.0 0.0 0.00 0.00 0.00 42 1016.3
20260504173046 26 0.0 0.0 0.00 0.00 0.00 42 1016.3
20260504171546 26 0.0 0.0 0.00 0.00 0.00 43 1016.4
20260504081551 13 0.0 0.0 0.00 0.00 0.00 53 1016.9
20260504044546 15 0.0 0.0 0.00 0.00 0.00 67 1018.5
20260504043045 16 0.0 0.0 0.00 0.00 0.00 68 1018.5
20260504041543 16 0.0 0.0 0.00 0.00 0.00 70 1018.4
20260504040100 16 0.0 0.0 0.00 0.00 0.00 71 1018.5
20260504034541 16 0.0 0.0 0.00 0.00 0.00 72 1018.5
20260504033038 16 0.0 0.0 0.00 0.00 0.00 71 1018.6
20260504031545 17 0.0 0.0 0.00 0.00 0.00 71 1018.6
20260504030045 17 0.0 0.0 0.00 0.00 0.00 70 1018.5
20260504024541 17 0.0 0.0 0.00 0.00 0.00 69 1018.6
20260504023047 17 0.0 0.0 0.00 0.00 0.00 67 1018.5
20260504021540 18 0.0 0.0 0.00 0.00 0.00 65 1018.3
20260504020039 18 0.0 0.0 0.00 0.00 0.00 63 1018.2
20260504014550 18 0.0 0.0 0.00 0.00 0.00 60 1018.1
20260504013045 19 0.0 0.0 0.00 0.00 0.00 59 1018.0
20260504011542 20 0.0 0.0 0.00 0.00 0.00 57 1018.0
20260504010050 20 0.0 0.0 0.00 0.00 0.00 55 1017.8
20260504004545 21 0.0 0.0 0.00 0.00 0.00 53 1017.8
20260504003055 21 0.0 0.0 0.00 0.00 0.00 52 1017.7
20260504001551 21 0.0 0.0 0.00 0.00 0.00 51 1017.5
20260504000042 22 0.0 0.0 0.00 0.00 0.00 48 1017.5
20260503234542 22 0.0 0.0 0.00 0.00 0.00 49 1017.5
20260503233043 23 0.0 0.0 0.00 0.00 0.00 46 1017.6
20260503231540 23 0.0 0.0 0.00 0.00 0.00 46 1017.5
20260503230038 23 0.0 0.0 0.00 0.00 0.00 43 1017.8
20260503224536 23 0.0 0.0 0.00 0.00 0.00 43 1017.8
20260503223043 23 0.0 0.0 0.00 0.00 0.00 43 1017.8
20260503221549 23 0.0 0.0 0.00 0.00 0.00 43 1018.0
20260503220041 24 0.0 0.0 0.00 0.00 0.00 43 1018.1
20260503214539 24 0.0 0.0 0.00 0.00 0.00 41 1018.2
20260503213044 25 0.0 0.0 0.00 0.00 0.00 41 1018.3
20260503211545 25 0.0 0.0 0.00 0.00 0.00 39 1018.5
20260503210042 25 0.0 0.0 0.00 0.00 0.00 39 1018.7
20260503204544 25 0.0 0.0 0.00 0.00 0.00 40 1018.9
20260503203044 25 0.0 0.0 0.00 0.00 0.00 40 1019.1